Volver al catálogo

STARLINK-3835

ActivoComunicacionesVLEO
NORAD 52476·PAYLOAD·🇺🇸 United States

Lanzado May 6, 2022 desde Cape Canaveral Space Force Station

Loading…

Próximos Pases (próximas 24 horas)

TLE

ActualizadoSource: CelesTrak SupGP

Época: Sep 14, 2026, 22:14 UTC

1 52476C 22049AB  26257.92687500  .00049982  00000+0  14301-2 0  2579
2 52476  53.1577 270.2815 0001278  92.0755 178.0467 15.35371937    13

Sigue STARLINK-3835 en tiempo real con AllMySat

Download on the App Store